Theta_e
293 293 293 293 293 294 294 294 295 295 296 296 297 298 298 298 299 297 294 296 290 284 284 284 285 281 280 281 277 277 281 282 277 275 272 270 267 273 273 277 279 280 278 276 272 270 272 280 279 278 280 281 282 282
292 292 292 293 293 292 293 294 294 295 295 296 296 297 297 298 298 298 291 296 295 285 285 287 286 287 288 287 283 279 280 278 283 277 273 272 265 266 268 267 278 277 280 277 279 278 281 280 282 283 283 281 282 282
291 291 292 292 292 292 292 293 293 294 295 295 296 296 296 297 298 296 291 293 291 284 284 286 283 287 288 288 290 281 278 283 282 282 275 271 269 273 267 268 271 277 279 278 279 280 281 282 283 283 283 282 283 283
290 290 291 291 292 292 292 293 293 293 294 294 295 295 296 297 297 297 289 292 289 285 280 278 285 284 288 289 288 287 285 284 283 282 277 270 269 277 271 275 274 276 278 274 274 278 280 281 282 283 282 282 282 283
290 290 290 291 291 291 292 292 293 293 293 294 294 295 295 296 297 295 290 291 291 285 278 278 280 284 285 287 286 286 286 282 277 276 275 278 275 275 271 273 270 277 277 276 274 280 281 282 282 282 281 281 281 281
289 289 290 290 291 292 292 292 292 293 293 293 294 294 295 296 296 289 282 289 292 291 282 276 282 277 280 284 284 284 284 280 278 276 273 274 279 278 271 268 278 279 280 281 279 281 282 282 283 281 281 281 282 281
289 289 289 290 291 292 292 292 292 292 292 293 293 294 295 295 292 283 279 282 293 291 281 276 273 279 282 281 282 281 283 281 279 276 274 277 278 276 267 270 278 280 281 281 281 280 278 279 279 281 281 280 276 274
288 289 289 290 291 292 294 293 293 293 292 293 293 294 295 295 293 286 287 292 293 285 281 275 274 277 282 281 280 283 280 281 281 280 273 277 277 276 271 279 279 279 279 279 279 279 280 278 278 276 274 273 270 271
287 288 289 289 290 293 293 293 293 293 292 293 294 294 291 288 283 281 293 294 291 282 275 276 268 268 278 280 281 282 282 277 282 278 276 278 274 274 277 277 277 276 277 277 273 271 271 273 274 271 270 267 268 268
287 287 288 289 290 291 291 290 291 292 292 293 290 283 278 282 292 291 285 282 282 282 279 270 262 269 279 274 272 275 278 278 273 277 278 276 277 281 279 275 278 276 276 274 269 267 263 265 270 269 267 266 266 265
286 287 287 288 289 289 289 291 291 292 293 285 280 278 282 291 281 277 275 275 275 273 276 274 271 269 279 272 277 277 271 274 271 274 276 274 275 279 281 273 274 275 275 275 276 276 274 272 270 267 262 260 260 258
285 286 286 287 288 289 288 290 291 288 284 282 282 282 282 278 276 272 270 271 270 270 265 269 271 274 278 276 272 276 273 274 269 275 272 267 272 278 275 275 271 271 271 265 263 266 264 264 263 263 261 258 256 254
283 285 285 286 287 288 287 287 288 290 288 283 279 274 274 272 269 267 263 262 267 258 264 267 268 272 278 279 276 273 271 270 272 271 270 270 275 265 274 265 260 259 262 260 258 259 259 257 257 256 255 253 252 250
283 284 285 285 285 286 286 285 285 286 283 277 274 269 268 266 262 263 266 267 266 267 264 267 264 270 271 275 275 270 269 267 267 267 269 266 268 271 271 262 261 259 260 259 257 256 256 255 254 252 252 250 250 248
282 283 283 281 284 285 283 282 281 272 274 273 270 264 264 261 250 247 247 256 257 258 269 265 264 272 269 269 273 268 265 264 266 264 266 269 268 263 259 258 259 259 257 255 253 254 253 252 252 248 244 244 245 245
281 280 276 281 283 282 278 275 270 267 261 259 257 259 254 257 249 248 247 252 256 265 270 269 263 263 262 268 267 266 265 265 266 262 256 252 251 250 251 253 253 254 253 251 251 251 251 250 250 249 242 242 243 244
279 266 278 281 282 275 274 268 265 260 260 252 248 246 247 247 249 247 248 253 259 260 270 271 264 266 267 261 262 266 267 264 255 247 247 247 248 247 249 251 250 251 251 249 247 248 246 245 246 245 247 244 242 242
266 272 279 280 275 266 258 260 262 260 255 254 249 247 248 247 248 249 251 255 258 262 264 267 271 267 263 263 260 262 247 244 245 246 248 247 246 247 250 250 251 250 248 248 249 245 245 246 248 247 245 242 242 242
274 276 278 277 270 257 258 255 257 255 254 254 253 254 252 251 255 256 253 255 258 260 259 266 268 266 262 249 245 244 244 244 247 250 248 246 249 249 250 250 250 247 247 245 246 248 245 244 246 246 246 245 246 243
274 274 274 271 266 257 254 253 254 255 254 254 256 255 255 254 253 253 255 255 258 257 256 255 249 245 246 246 246 250 252 251 251 249 249 250 251 251 250 250 250 247 245 244 244 245 245 244 243 242 242 243 245 245
265 265 267 259 255 254 251 251 251 248 253 254 254 255 255 257 252 251 252 255 251 247 249 247 247 247 248 248 248 248 251 254 254 253 251 250 251 251 249 248 247 247 244 246 248 243 243 244 243 241 242 242 241 243
259 267 256 259 256 251 251 250 251 252 251 252 255 255 251 252 253 251 253 249 246 245 245 246 247 246 248 247 246 246 247 250 251 252 251 250 249 250 249 248 249 247 245 242 243 244 241 241 240 241 242 242 244 244
260 259 254 253 253 251 247 250 248 248 249 249 250 253 251 252 252 254 247 247 246 246 245 245 245 245 246 247 248 248 247 250 249 249 249 248 246 246 246 245 244 244 242 241 238 240 242 245 246 245 244 244 244 244
255 246 246 245 247 243 243 244 246 247 246 245 246 248 250 248 250 253 248 246 246 247 247 245 245 248 248 248 247 246 245 246 246 245 244 248 248 244 242 241 239 238 240 241 241 240 242 242 246 245 244 243 242 243
251 241 243 240 242 243 242 242 242 245 243 240 244 246 244 243 252 250 250 248 247 247 247 245 245 245 247 246 245 244 241 240 244 246 243 239 239 238 240 239 239 239 238 242 240 240 240 240 242 243 243 242 242 242
239 236 238 233 238 241 238 240 237 237 236 240 238 238 236 243 249 247 248 248 247 247 247 247 247 247 247 243 244 245 243 235 237 242 240 237 239 241 239 242 242 245 241 240 242 240 240 242 241 242 242 243 245 244
240 237 236 235 235 235 237 235 235 238 237 238 235 238 240 244 243 244 245 247 248 247 246 246 246 246 246 244 240 237 235 233 238 240 238 237 239 239 242 242 242 245 241 241 241 242 243 243 242 243 244 243 243 244
236 234 238 236 235 232 234 233 235 236 235 236 235 240 242 242 244 241 242 243 242 241 243 241 241 239 238 238 236 236 238 236 237 238 238 239 238 239 239 240 242 252 243 244 244 244 243 244 245 245 248 248 247 247
236 234 235 237 235 237 235 236 235 235 237 233 237 239 239 239 237 236 239 238 233 236 237 237 240 235 236 235 235 234 235 238 242 241 241 242 241 245 241 241 242 243 243 244 251 250 246 247 247 247 249 249 249 247
237 231 236 234 238 238 237 235 234 232 231 234 234 238 238 238 238 234 233 233 237 238 237 235 234 236 238 237 239 240 238 239 241 243 242 242 244 242 240 241 242 242 243 242 245 245 251 249 248 245 244 244 243 243
232 232 236 236 238 235 232 229 228 229 229 230 228 233 235 235 239 235 236 235 234 232 235 237 235 232 235 236 237 238 243 240 240 242 241 240 240 240 241 243 243 242 243 245 247 246 246 243 241 240 241 242 242 243
234 233 237 240 239 234 231 231 230 232 232 234 235 230 236 237 239 242 240 236 235 236 240 238 236 242 241 243 240 241 245 242 241 244 244 245 244 245 246 248 249 248 248 248 247 246 245 242 241 240 241 241 242 242
232 231 231 235 238 239 235 234 236 238 235 235 236 233 232 236 242 244 242 240 241 242 243 244 246 245 245 247 246 246 249 248 248 254 256 255 254 253 250 248 246 246 244 243 242 241 241 240 241 241 241 241 242 243
Wind_Speed
15 14 13 12 12 14 14 16 17 17 19 17 17 17 18 18 18 8 2 8 4 3 4 7 6 6 2 2 5 4 3 2 3 3 5 4 4 6 3 2 6 8 8 5 4 3 10 9 3 10 5 2 4 5
12 13 14 15 15 13 15 16 16 18 19 19 18 18 18 19 17 16 4 5 6 2 2 2 5 4 8 8 7 0 3 5 5 4 0 4 2 1 4 4 2 5 6 8 9 7 2 6 3 3 4 6 4 7
8 10 13 15 18 18 19 18 19 17 19 19 20 21 19 19 19 16 2 5 3 2 3 3 7 7 4 5 5 7 2 2 2 3 5 3 4 5 5 6 3 4 3 4 3 3 4 6 4 4 5 7 6 5
11 12 11 12 12 15 17 21 23 21 20 20 22 22 20 21 20 17 5 3 4 1 3 6 2 6 6 6 4 3 7 5 5 2 3 3 4 2 4 4 5 5 9 7 3 2 6 1 4 7 8 7 6 4
13 15 16 17 16 17 17 19 20 23 23 21 22 22 22 22 20 12 3 6 5 4 2 3 4 5 2 8 8 6 9 6 3 3 3 3 2 4 1 2 3 6 8 6 6 10 5 8 10 7 7 5 5 5
15 18 20 21 19 22 21 19 20 20 23 23 23 23 23 22 20 4 2 3 5 4 3 5 3 4 1 6 8 9 6 3 3 5 4 3 2 4 5 5 5 7 5 5 5 7 5 6 11 6 6 5 4 4
18 20 22 23 26 26 28 28 27 24 23 23 23 24 24 25 10 4 6 5 16 7 2 3 3 4 4 4 3 3 2 2 4 3 3 4 4 5 3 6 6 8 9 6 6 9 3 5 7 7 6 6 5 3
18 21 22 26 29 33 33 32 33 32 26 24 24 25 24 23 14 7 2 11 12 3 2 4 1 2 4 4 3 3 3 3 3 4 2 4 3 2 3 22 9 8 8 6 10 4 5 6 8 6 4 6 6 5
18 22 24 28 29 33 26 19 23 30 27 23 24 24 10 9 4 4 16 18 4 4 4 3 5 4 2 3 4 3 3 4 4 5 5 7 5 7 14 10 12 10 12 9 5 6 5 5 8 7 6 4 5 4
19 21 23 27 27 25 20 5 11 21 22 24 15 5 3 4 18 15 7 5 7 5 4 4 2 4 4 2 2 4 3 4 5 5 5 6 9 16 12 9 12 13 12 12 8 2 1 4 9 9 9 4 4 5
18 21 22 23 23 23 20 20 12 18 25 6 3 3 0 18 5 2 4 5 3 4 3 4 4 4 1 5 4 3 4 4 5 6 8 7 10 21 16 9 10 11 13 15 12 10 9 7 9 9 5 5 5 5
17 21 22 23 20 22 20 20 18 8 3 8 8 5 2 3 3 5 5 2 3 5 3 7 5 5 3 3 3 4 5 5 8 8 5 4 7 11 11 13 10 10 12 9 4 9 7 8 6 8 8 7 5 5
17 20 21 23 18 23 19 17 16 13 18 5 4 3 4 2 5 8 7 1 3 1 3 2 1 4 3 3 3 5 9 8 5 5 5 5 8 4 11 5 5 5 8 11 7 7 9 8 6 5 7 5 6 4
15 18 21 17 21 23 19 16 12 11 5 4 4 6 5 3 4 6 10 12 7 6 6 4 3 5 3 4 2 4 1 3 5 6 11 5 9 11 11 5 10 13 11 11 10 10 10 9 7 5 6 4 5 2
16 19 13 9 21 23 20 11 11 7 3 4 5 7 6 4 3 2 2 2 3 1 5 4 4 3 2 4 5 3 0 4 6 7 6 6 8 7 8 7 8 13 12 10 8 9 9 8 7 6 3 3 3 3
17 13 4 18 20 18 13 11 8 4 5 5 6 3 2 3 2 2 2 2 3 1 2 4 4 5 6 5 5 6 8 5 5 5 3 6 6 4 4 7 6 8 9 9 7 7 8 7 8 7 4 3 2 3
12 1 17 18 18 9 9 4 3 7 4 5 2 2 2 2 2 2 2 1 3 2 5 4 6 10 2 3 4 5 4 6 4 3 2 4 3 2 4 9 8 9 12 10 6 6 6 6 7 5 6 3 3 3
2 6 17 12 10 4 4 5 4 4 6 3 3 3 0 2 0 1 1 2 1 2 2 4 3 3 6 9 6 6 2 2 1 2 1 3 3 3 5 10 8 8 9 9 8 6 7 7 6 4 6 5 4 2
8 6 11 13 5 5 4 5 4 5 3 1 2 1 2 1 0 1 1 1 1 2 3 1 4 5 5 2 0 2 1 2 2 2 3 3 4 5 6 8 9 7 8 5 5 6 4 4 3 4 3 3 3 2
9 6 12 10 6 4 6 4 2 5 3 2 2 1 1 2 1 0 4 4 2 2 4 2 0 1 3 2 1 3 1 3 4 3 3 2 2 6 4 6 5 5 6 4 5 6 4 3 2 3 3 3 4 3
6 6 9 5 4 7 6 3 4 2 3 3 0 2 2 1 2 3 3 4 5 4 2 2 1 1 2 3 2 4 3 2 1 2 3 3 2 5 5 6 5 3 2 3 5 3 3 3 3 2 3 2 3 3
2 9 3 6 5 4 6 4 3 0 3 2 2 1 3 2 1 2 1 5 3 2 2 3 3 3 3 3 4 4 4 3 3 5 9 9 3 4 4 5 5 3 2 2 3 4 3 3 3 3 3 2 2 2
7 5 5 8 7 8 2 2 4 5 4 1 2 2 2 2 1 1 5 2 2 1 1 2 3 2 3 3 2 3 6 5 5 5 5 4 2 3 4 4 2 4 2 2 1 3 3 4 4 4 3 2 2 1
12 10 9 7 7 2 3 6 3 3 3 5 4 3 3 3 5 2 4 2 0 1 1 3 3 2 1 2 3 3 4 3 4 4 3 3 4 2 3 2 1 1 1 3 3 2 2 2 3 3 2 2 1 1
10 13 8 9 5 7 8 6 7 6 4 4 4 4 4 5 2 4 3 1 0 1 1 1 1 2 1 0 1 2 2 2 1 3 0 0 3 1 2 2 0 2 3 4 2 2 2 2 2 3 2 2 2 3
13 6 7 2 5 5 3 4 4 2 1 3 2 4 3 3 5 2 2 2 1 1 1 1 1 1 1 0 1 1 2 1 1 3 2 2 1 3 3 3 2 3 3 2 5 4 4 3 3 4 3 4 4 4
8 6 4 0 2 2 3 1 1 3 5 4 3 6 3 6 1 4 2 1 1 1 0 1 1 1 1 1 2 3 3 2 1 2 2 2 2 2 3 4 4 4 4 5 4 4 5 5 4 4 4 3 4 5
3 3 4 5 4 1 4 3 4 3 3 2 1 6 4 3 4 4 3 1 0 1 2 2 1 1 1 2 2 3 3 3 4 3 3 2 2 3 4 3 3 3 3 4 4 3 3 3 3 3 4 5 4 3
4 3 1 5 3 5 3 3 2 3 2 3 2 1 3 4 3 2 2 1 1 2 2 2 3 2 2 2 2 2 2 1 3 2 0 3 3 4 2 2 2 1 1 2 4 5 6 6 6 6 7 5 4 2
4 2 3 2 5 4 4 3 3 3 2 2 1 3 3 4 4 1 2 1 2 3 3 2 1 2 2 2 3 4 3 4 4 4 4 4 5 3 1 2 2 2 2 2 2 3 6 3 4 3 2 2 2 3
1 3 4 3 1 3 3 2 2 1 2 1 1 3 4 5 5 3 3 4 3 3 2 1 3 3 3 3 3 1 4 2 6 7 5 3 3 3 3 3 3 3 3 3 3 3 3 2 2 3 5 7 7 7
3 3 2 3 3 3 3 4 2 2 4 3 3 2 4 4 4 4 3 4 3 2 6 4 3 5 6 6 3 4 5 3 3 4 6 4 5 6 5 4 3 3 4 4 4 4 4 6 5 5 6 9 10 10
2 1 1 2 5 5 4 3 4 5 2 2 3 1 2 2 4 4 2 4 4 4 4 4 5 4 4 5 5 4 6 5 7 8 8 10 9 7 3 3 3 3 4 3 4 3 6 6 7 9 10 11 13 13
Wind_Direction
283 276 269 269 277 282 269 263 262 254 250 238 242 247 242 239 228 212 144 175 191 188 218 189 201 137 95 141 145 217 74 4 53 130 130 193 136 205 122 158 180 173 158 172 126 113 260 170 91 165 194 67 113 93
295 283 278 279 277 271 270 274 258 258 255 243 237 237 243 238 236 216 211 169 182 203 286 270 248 253 203 181 142 255 163 165 178 112 103 103 107 69 152 206 213 208 189 174 181 205 215 177 138 153 133 129 134 117
340 321 306 297 295 291 282 266 264 259 252 246 241 238 231 234 228 216 178 155 148 181 260 224 230 244 200 186 170 145 302 197 169 152 154 162 164 129 163 232 104 266 183 158 110 187 194 165 93 114 128 124 126 123
336 329 318 311 305 300 292 287 278 259 249 245 240 237 232 227 223 206 163 189 123 106 231 246 355 210 185 164 172 150 138 92 95 66 111 139 160 169 205 171 162 184 148 163 262 117 86 87 172 158 146 131 123 111
328 329 327 316 299 292 291 286 270 263 255 247 240 232 227 222 214 216 146 178 164 159 278 300 315 238 237 166 148 130 132 127 134 105 135 198 132 122 326 50 241 186 164 173 213 177 147 187 180 168 152 153 149 152
326 326 319 315 309 294 286 287 277 259 256 247 233 226 221 211 205 132 166 210 165 140 220 247 269 307 175 159 153 147 149 120 124 143 193 209 248 120 162 204 220 181 168 156 171 174 151 164 170 157 167 172 127 148
326 326 321 317 315 303 291 284 269 257 252 245 238 219 214 205 188 166 181 187 174 136 261 227 210 210 142 106 123 125 132 162 128 134 203 154 192 139 113 230 160 182 170 169 138 112 101 175 195 173 136 124 106 93
321 319 328 325 318 310 295 268 242 233 236 237 229 210 206 202 189 210 155 136 141 118 152 259 225 145 179 138 170 160 145 135 181 178 47 149 105 89 237 242 143 168 173 175 179 165 151 124 112 122 102 133 158 170
313 322 335 328 331 321 316 260 225 213 217 225 204 197 186 201 172 189 159 149 154 148 182 196 153 205 187 134 132 167 147 183 148 179 193 151 163 202 226 146 176 177 182 188 113 101 106 152 165 158 155 152 165 173
314 321 332 338 333 339 343 353 176 196 209 185 173 162 150 192 131 128 157 181 192 192 177 181 37 194 190 133 154 122 178 201 186 201 124 203 211 232 225 174 175 185 185 138 123 235 166 221 191 184 196 147 149 146
324 323 331 341 337 349 350 352 259 202 169 175 115 79 101 153 78 90 189 195 157 190 168 153 161 136 223 162 171 215 190 175 200 188 188 194 213 226 215 181 195 185 172 189 195 205 184 181 171 163 152 147 138 144
332 328 329 337 340 348 356 351 338 188 160 131 108 106 92 78 147 180 171 129 197 199 207 151 192 163 148 83 127 194 194 181 224 159 179 206 239 217 171 204 191 183 172 154 137 139 125 114 113 125 130 148 163 152
322 323 325 336 337 343 357 355 350 183 110 79 89 107 113 153 188 177 152 266 185 188 201 145 142 129 119 140 239 193 206 200 132 185 203 215 230 210 190 136 132 105 118 123 118 103 111 110 98 116 137 134 137 138
326 326 324 335 332 342 354 350 349 323 75 98 161 143 177 158 213 193 189 178 205 149 158 149 130 151 168 159 204 268 355 63 179 207 227 238 223 207 193 153 132 172 157 143 137 131 131 132 123 101 105 130 126 147
332 324 348 341 336 345 348 11 25 29 85 155 129 183 188 184 47 271 265 76 305 224 116 67 39 119 178 175 181 108 76 265 207 205 203 224 221 175 166 168 154 152 150 141 133 133 130 130 133 121 130 121 133 158
332 348 5 333 331 3 355 14 29 59 47 59 31 83 1 63 331 18 41 320 307 252 90 74 161 134 231 174 175 200 170 199 250 222 306 336 341 358 100 99 91 112 115 117 118 121 122 132 137 141 115 122 172 153
352 190 318 317 343 34 27 73 58 46 67 65 1 29 83 46 158 214 155 211 318 291 167 143 180 201 128 130 197 177 201 225 219 283 299 328 324 8 78 98 107 122 116 119 107 109 112 112 113 109 132 205 185 171
194 287 309 331 13 42 31 30 82 75 69 71 85 272 96 149 156 319 327 347 349 288 326 178 123 165 183 173 233 215 0 340 218 161 72 351 6 26 93 110 107 111 121 116 118 122 123 133 139 161 147 165 124 93
311 326 347 352 36 84 77 26 22 91 68 98 96 65 110 180 337 23 333 329 290 309 319 333 215 189 200 83 173 284 226 195 171 53 33 354 46 70 96 100 103 106 103 116 150 136 127 133 142 147 151 149 142 169
338 347 358 37 53 79 66 16 37 86 94 109 49 80 91 87 177 35 44 20 19 8 43 33 222 343 304 344 350 296 7 134 126 108 84 62 97 115 106 111 107 101 101 98 88 113 113 89 76 143 152 155 131 166
7 332 8 66 54 58 80 6 52 114 117 82 7 32 61 62 40 35 23 345 59 28 44 14 358 326 303 291 302 281 355 315 128 97 127 150 176 135 112 96 93 61 109 150 137 117 109 147 170 168 137 137 157 155
284 5 49 12 80 59 81 17 79 128 70 87 111 69 50 74 68 35 335 54 54 21 354 327 353 332 336 10 346 1 309 297 75 94 94 114 149 124 145 140 117 137 147 176 151 148 173 179 163 147 123 153 131 131
15 24 48 16 75 44 308 353 73 2 89 8 23 114 46 52 74 98 78 67 96 46 318 336 320 313 331 335 321 14 358 21 69 72 81 84 65 60 110 87 104 135 144 240 164 145 166 173 145 127 126 103 92 14
30 45 35 40 21 52 338 24 16 36 52 31 35 46 15 340 319 79 83 72 28 342 14 350 330 305 229 27 30 2 2 359 92 80 32 124 125 75 62 109 176 196 129 122 130 137 119 122 137 111 116 117 111 208
65 0 23 5 360 30 30 13 357 38 51 347 39 11 355 334 41 50 50 83 93 133 137 248 209 36 44 32 279 319 329 330 124 115 305 53 111 81 43 35 357 227 156 111 122 140 173 129 130 132 155 156 206 254
65 321 46 316 347 45 341 46 31 26 28 44 350 291 352 24 53 360 355 7 1 329 10 5 2 21 70 176 273 332 307 322 54 71 297 185 157 127 139 106 56 301 199 176 136 160 175 183 168 177 214 235 234 239
54 345 336 16 114 106 46 16 112 70 48 26 322 343 26 66 340 272 303 240 312 53 87 57 49 46 16 311 278 270 271 232 201 205 298 251 227 189 137 153 199 237 174 184 166 152 171 188 194 204 223 247 222 220
132 21 58 317 37 358 113 57 43 32 304 274 70 26 93 158 217 247 227 317 52 3 31 8 352 334 292 279 288 318 325 336 327 330 327 304 239 224 223 243 247 216 170 180 183 172 170 181 198 209 227 244 251 223
36 325 51 17 14 44 58 100 199 243 213 105 111 303 260 236 236 225 262 260 65 81 38 342 304 342 313 305 288 249 228 147 100 64 243 263 324 291 222 218 259 264 159 157 232 192 205 209 209 217 229 235 240 228
329 11 67 24 60 14 265 165 233 257 230 197 238 307 298 276 248 167 109 93 146 210 216 191 220 145 229 176 289 300 233 207 198 173 176 221 227 252 239 194 216 226 179 159 229 285 311 1 347 14 347 295 259 252
316 23 61 46 115 257 240 278 300 312 11 336 320 164 248 295 304 223 190 196 157 124 110 270 280 214 192 224 207 279 302 243 220 235 235 231 241 251 252 237 223 199 189 201 215 226 243 250 240 264 278 275 271 266
6 56 89 38 314 295 18 34 346 7 332 13 310 341 324 358 308 280 186 127 110 193 230 193 202 252 211 226 227 242 231 252 217 223 227 227 234 236 230 222 206 194 207 218 220 227 227 240 250 246 257 267 268 267
31 31 54 36 2 354 335 15 9 341 6 349 296 235 238 195 250 282 274 207 183 196 211 216 228 231 228 229 223 235 235 231 233 245 243 238 230 234 217 211 203 206 215 222 229 214 234 238 255 258 257 258 264 268